Retour au catalogue

OPS 4412

TRANSIT 9

ActifNavigationPO
NORAD 801·PAYLOAD·🇺🇸 United States

Lancé Jun 4, 1964 depuis Vandenberg Space Force Base

Loading…

Prochains Passages (prochaines 24 heures)

TLE

FraisSource: Space-Track

Époque: Sep 14, 2026, 06:25 UTC

1 00801U 64026A   26257.26800014  .00000335  00000-0  15933-3 0  9995
2 00801  90.4616 192.5903 0049551  94.8669 265.8180 14.17135686198765

Suivez OPS 4412 en temps réel avec AllMySat

Download on the App Store